Wind_Speed
13 20 23 29 32 32 32 31 31 27 27 25 22 17 14 12 11 10 10 9 9 9 7 9 12 19 25 25 25 27 27 25 30 27 23 19 14 13 11 11 10 10 11
12 15 21 26 32 34 32 32 30 30 28 26 22 15 16 12 12 11 10 8 7 8 8 9 11 15 20 22 24 28 25 26 21 13 16 3 7 17 11 11 11 11 10
14 13 19 25 27 33 34 33 32 30 28 25 20 18 13 15 13 12 10 9 7 7 10 11 12 13 15 20 23 26 26 23 13 22 4 3 2 5 11 13 13 11 9
13 14 18 23 27 32 34 33 31 30 27 25 21 20 17 16 13 13 11 10 9 8 8 10 10 11 13 16 19 21 24 27 19 20 2 5 10 3 2 8 10 9 10
15 16 19 23 24 35 35 34 32 29 27 24 20 18 16 12 16 14 12 11 10 9 9 10 10 11 10 10 12 17 20 24 19 18 6 7 6 8 5 2 5 7 8
17 14 19 17 21 32 35 33 33 31 28 24 21 19 18 19 17 16 14 14 12 10 10 10 10 10 10 10 11 11 14 18 15 11 6 8 4 5 4 3 4 5 5
16 15 17 21 24 31 35 35 35 33 30 26 23 19 18 16 14 17 17 17 14 12 12 12 13 13 13 13 13 14 14 14 13 11 11 11 12 8 7 7 4 3 5
20 20 19 26 27 30 35 36 37 35 31 27 24 21 18 14 14 17 16 16 16 15 14 14 15 15 15 15 15 17 18 17 17 17 15 16 14 10 8 6 6 2 1
21 21 22 29 29 32 35 37 36 35 32 29 25 23 20 17 18 17 16 17 18 17 16 15 16 16 16 15 15 17 18 16 16 16 14 14 14 12 11 8 5 2 2
18 18 18 27 30 31 32 34 37 37 33 29 27 25 21 20 20 19 20 20 20 19 19 17 16 16 16 16 16 17 17 16 16 14 13 13 12 11 10 9 8 6 4
20 19 18 28 28 29 30 34 35 35 35 33 30 26 24 23 22 21 21 21 21 20 19 18 18 17 17 16 15 16 16 16 15 13 11 12 10 10 11 10 10 9 7
21 18 18 26 27 27 28 33 35 36 37 35 32 29 27 26 24 23 24 23 22 21 20 19 18 17 16 15 15 16 15 14 14 13 11 12 10 10 9 9 10 10 9
16 14 15 17 25 28 29 30 33 34 36 35 35 32 29 29 27 26 26 25 24 23 21 20 19 18 17 16 15 14 14 13 12 11 11 11 8 8 7 8 7 7 7
18 17 16 16 25 28 29 29 30 34 35 36 37 34 32 31 29 28 28 27 26 25 23 21 19 18 18 17 16 15 14 13 12 11 9 9 7 6 5 5 4 4 4
15 17 17 15 22 25 27 28 30 35 37 37 37 35 33 32 30 30 30 28 27 25 24 22 21 19 19 18 17 16 15 15 14 11 9 7 6 6 5 3 3 3 3
16 16 15 15 21 28 30 31 32 36 39 37 36 35 34 33 32 32 32 30 28 26 25 24 22 22 19 17 16 15 16 15 13 12 10 7 4 4 5 5 4 3 4
13 15 17 18 25 30 32 33 33 35 35 35 36 38 37 36 35 35 34 33 31 29 27 25 23 22 20 18 17 15 14 13 12 11 10 8 4 3 3 4 4 4 6
3 9 11 18 23 24 26 27 31 33 33 32 36 39 39 38 37 37 37 35 33 32 30 27 25 22 21 20 18 17 14 12 11 10 9 8 5 2 0 1 2 4 5
9 9 14 13 18 28 31 32 33 34 34 36 38 41 42 40 39 39 38 38 35 34 31 29 27 25 23 22 20 19 17 15 13 12 11 9 6 4 3 3 2 3 3
12 12 11 22 24 27 32 33 32 34 35 36 39 43 43 42 42 40 39 38 36 35 32 30 29 26 23 23 22 20 19 18 16 14 13 11 8 6 4 5 4 3 3
21 14 15 24 26 29 33 31 31 35 32 32 35 39 43 43 41 40 39 38 37 35 33 32 29 27 25 24 24 22 20 19 19 17 16 14 12 9 6 6 4 3 3
26 22 15 22 29 33 34 29 31 30 35 37 37 38 40 39 39 39 38 37 38 35 34 32 30 29 27 24 24 24 21 19 19 18 15 13 12 10 8 8 7 5 2
23 25 14 17 23 31 35 30 28 33 36 36 36 36 38 37 40 39 38 36 38 36 35 35 34 33 30 27 25 24 23 20 19 16 14 13 13 11 11 10 8 6 3
21 22 13 15 19 26 29 27 32 36 37 34 34 36 37 36 37 37 38 38 37 34 34 34 34 35 32 30 28 27 25 22 19 16 15 16 15 14 12 13 12 11 8
25 22 12 15 17 24 24 26 34 38 33 30 31 32 33 37 36 37 40 41 41 43 39 37 36 37 35 37 32 30 29 27 22 19 18 20 21 20 19 18 15 14 13
26 23 8 13 16 21 23 28 32 36 34 29 30 31 31 32 33 33 32 34 36 38 38 35 37 36 35 31 30 29 27 26 26 24 24 26 26 25 24 21 19 17 16
Wind_Direction
160 151 158 165 166 165 163 163 164 169 171 166 158 155 142 128 126 128 121 126 127 126 128 138 145 156 161 161 156 149 143 137 139 118 97 90 95 93 90 109 105 110 94
153 150 155 163 168 171 172 168 171 175 177 174 170 163 148 138 131 126 125 122 110 116 127 141 142 164 166 167 165 159 147 143 144 134 127 133 85 65 77 114 112 111 99
161 161 169 168 171 173 176 173 178 178 179 177 172 160 148 140 134 133 132 125 114 118 133 140 161 166 172 172 176 172 165 161 159 159 138 118 146 121 59 98 110 104 79
178 179 172 176 177 177 178 178 181 177 179 182 183 178 167 155 156 148 141 134 129 132 136 131 159 161 177 188 190 186 185 175 169 179 133 140 144 151 128 91 103 94 79
183 178 184 179 174 180 178 181 181 179 182 185 189 178 168 165 156 150 152 144 136 140 140 144 150 162 171 175 186 195 193 190 181 186 135 120 139 130 141 165 154 110 80
189 176 172 164 177 180 181 181 182 183 186 187 185 186 178 165 159 159 161 147 145 145 142 149 146 145 152 158 159 157 171 183 190 185 175 165 164 155 148 124 168 188 162
182 175 173 172 178 180 183 184 185 184 187 187 188 189 185 179 181 172 167 154 150 151 148 146 145 144 138 132 134 136 133 140 151 150 128 114 101 111 142 131 133 154 201
186 186 184 178 182 180 183 183 185 187 187 188 190 189 188 192 194 178 172 162 157 156 151 152 149 140 135 130 128 122 119 122 118 114 109 103 95 98 109 132 150 111 120
188 188 182 185 182 182 186 186 185 190 189 190 191 189 192 199 191 179 178 169 162 161 158 155 149 145 141 136 132 126 123 122 116 110 106 101 96 91 87 86 88 123 147
186 183 185 186 187 186 186 186 192 194 192 193 193 193 196 194 190 183 182 176 167 169 165 158 154 146 143 140 139 133 127 127 119 113 110 102 94 89 84 80 77 80 112
183 184 183 184 182 182 182 185 189 194 196 198 196 196 194 190 188 188 187 179 173 174 172 166 160 155 149 145 143 137 136 133 126 119 114 104 97 92 87 84 77 74 78
184 180 176 171 175 176 177 183 188 193 200 199 196 196 192 189 189 189 189 180 179 179 177 171 165 160 157 153 153 147 146 140 133 125 120 110 104 99 93 82 74 71 71
174 168 165 170 171 175 178 181 186 192 198 198 194 194 193 190 193 191 191 182 182 182 181 176 172 167 164 161 161 158 151 145 135 129 127 114 108 103 99 81 76 74 68
172 168 167 174 174 174 175 177 180 189 192 192 194 193 195 194 195 192 192 186 186 183 184 180 175 173 171 170 168 165 159 152 143 137 131 118 103 92 101 96 82 78 71
168 173 175 172 171 170 172 172 175 184 191 191 193 194 197 197 195 193 193 189 188 189 186 182 179 179 180 179 175 171 169 165 157 151 145 129 101 83 106 100 94 94 72
176 175 173 166 174 176 175 173 174 180 189 189 191 196 195 196 194 194 192 190 190 190 188 188 185 183 184 185 182 177 173 173 172 168 160 150 121 91 110 105 103 80 54
173 175 180 181 181 180 179 178 175 176 181 183 189 195 194 195 195 195 193 192 192 191 191 190 189 189 186 186 185 185 182 182 183 184 179 173 156 120 96 106 90 81 73
281 197 190 185 182 176 175 170 168 173 177 178 185 193 194 195 195 196 195 195 194 194 193 193 193 192 189 187 188 188 191 187 188 192 191 191 184 173 283 125 110 83 70
311 301 209 193 178 173 172 168 169 174 177 181 185 190 195 193 195 197 197 197 196 197 197 197 195 195 192 192 192 191 192 192 192 193 196 201 201 210 275 220 175 131 107
320 305 228 186 176 176 169 166 171 176 185 184 185 192 194 196 196 198 198 198 200 200 199 200 202 200 197 196 196 199 199 197 197 198 202 207 214 227 269 219 200 164 137
314 298 250 181 181 172 169 175 176 189 184 181 184 188 193 197 199 198 198 198 200 201 201 203 204 204 204 201 201 204 206 208 206 209 209 213 217 229 246 209 185 148 146
324 319 208 184 176 174 173 179 189 183 179 181 185 187 192 193 195 197 197 200 201 201 203 205 206 208 209 210 207 210 215 217 218 217 218 219 220 227 217 189 174 161 170
321 317 200 173 175 177 181 182 184 178 174 176 181 184 189 189 198 196 196 195 201 200 202 205 208 209 209 211 212 213 215 219 221 223 226 222 221 215 205 204 198 204 216
324 319 180 166 176 182 187 187 177 178 177 174 176 180 182 185 196 196 198 194 195 198 200 202 209 212 210 212 212 210 211 214 216 216 216 218 219 219 220 214 218 226 231
328 320 205 177 180 179 186 187 180 178 172 172 172 175 179 184 188 196 200 203 210 208 204 208 211 211 213 216 214 212 210 212 215 213 210 206 207 213 217 221 226 229 230
340 338 220 185 179 179 181 184 187 180 170 167 170 173 177 181 186 190 197 208 218 216 222 226 222 222 227 223 219 220 221 219 216 209 210 212 216 221 225 227 228 230 234
Height
774 778 784 790 795 799 803 808 813 821 826 831 835 839 841 843 845 846 846 848 848 848 853 855 856 858 859 861 864 866 869 872 870 871 884 887 889 889 889 889 889 890 889
771 777 783 789 793 799 803 807 813 820 825 829 834 837 840 842 845 846 848 850 850 850 852 856 857 860 861 864 866 868 869 873 874 875 881 887 892 891 892 891 891 892 891
768 775 783 786 793 797 802 805 813 818 825 829 833 837 839 843 845 846 849 850 851 853 852 855 858 860 863 864 867 868 868 871 874 875 878 884 888 892 895 894 894 893 892
769 774 778 785 789 795 800 805 813 817 824 828 832 833 836 841 844 846 848 850 851 854 855 854 859 860 863 866 867 868 869 869 870 875 876 877 880 887 896 897 895 894 893
765 770 777 781 788 793 797 804 811 817 822 827 830 833 837 841 844 845 848 849 852 855 856 857 860 861 863 865 866 867 868 869 870 873 876 878 880 880 885 894 896 895 894
762 768 777 782 789 792 797 802 808 814 821 825 828 832 834 838 841 844 849 848 852 856 857 859 860 862 864 866 866 867 867 869 871 874 875 877 878 880 882 888 892 892 894
758 765 771 777 785 790 794 800 806 811 817 821 826 830 834 837 841 842 846 846 851 856 859 860 861 863 865 866 867 868 868 870 872 874 876 877 877 879 880 883 887 890 892
750 756 764 770 779 785 791 796 801 807 813 818 823 828 833 837 842 843 846 847 850 856 859 862 864 865 866 868 870 869 871 873 875 876 878 878 880 881 882 883 885 889 891
743 750 759 765 773 779 785 791 798 804 808 814 821 826 831 836 841 844 847 849 850 855 860 863 865 866 867 869 871 872 873 875 877 879 880 881 882 883 884 884 885 886 891
739 746 753 761 767 774 782 789 795 800 806 813 819 824 828 834 839 843 847 849 850 856 860 862 866 868 870 871 872 874 875 877 880 882 883 884 884 885 886 886 886 887 888
729 736 744 754 762 771 778 784 791 796 803 809 817 822 826 833 837 842 848 849 851 856 860 862 865 868 870 872 874 876 878 880 881 883 885 885 886 887 887 888 888 888 889
718 728 738 747 757 765 773 778 785 791 797 806 813 819 824 830 835 841 847 847 851 857 860 862 865 868 871 873 875 877 880 881 882 884 886 887 888 888 889 889 889 890 890
718 727 736 743 751 759 767 774 780 786 792 801 809 815 821 827 832 839 845 845 850 856 860 861 864 867 870 873 877 879 881 882 884 886 887 888 889 889 890 890 891 891 892
710 720 731 738 745 752 761 768 776 781 788 796 803 810 817 823 830 836 843 844 849 854 860 861 863 867 871 873 876 879 881 883 886 888 889 889 890 890 891 892 892 891 892
710 716 723 731 739 747 755 762 770 776 784 792 799 805 814 822 827 834 840 843 848 853 857 860 862 866 870 873 875 878 881 884 886 888 889 890 891 891 891 892 892 891 892
703 710 718 726 733 739 746 754 763 770 778 786 794 803 812 820 824 831 836 842 846 852 855 859 861 864 868 873 875 878 880 884 886 888 889 890 892 891 892 892 892 892 892
704 710 713 717 725 732 739 747 756 766 775 782 791 800 808 815 821 828 833 838 842 849 852 856 860 863 867 871 875 878 880 883 885 887 889 890 891 892 893 893 892 892 892
710 710 713 717 724 733 741 748 755 764 773 779 787 796 803 810 817 824 828 834 840 845 849 854 858 862 865 869 873 876 879 882 884 887 889 890 890 892 893 892 892 892 892
718 715 713 721 726 728 735 744 753 759 767 772 780 789 797 805 812 818 823 830 836 842 846 851 855 859 862 866 870 874 877 879 882 884 887 888 889 890 891 891 891 891 891
716 712 710 713 720 728 733 740 747 754 759 765 773 781 791 798 805 812 819 826 832 838 844 848 852 856 860 863 867 871 874 877 879 882 884 886 887 889 890 890 890 890 891
711 711 708 706 713 722 728 735 741 744 754 764 771 778 785 792 800 807 815 821 829 835 840 844 849 852 857 860 863 867 870 873 876 879 880 882 885 887 888 888 889 890 890
704 702 703 702 707 713 721 729 734 742 750 758 766 773 781 789 796 804 810 818 825 830 835 840 845 849 853 856 859 863 867 870 873 875 877 880 882 884 885 886 887 888 889
710 702 699 703 707 710 714 722 730 739 745 754 762 769 777 785 791 798 805 814 820 825 829 835 839 842 847 851 856 859 863 866 869 871 874 877 879 881 883 885 885 886 887
711 705 700 702 706 710 715 720 726 734 742 749 757 765 772 779 787 793 800 806 812 818 823 827 831 836 841 846 850 854 858 861 865 868 871 873 876 878 880 881 882 883 884
711 704 701 701 705 710 717 722 724 730 740 748 754 761 768 774 781 788 793 799 803 807 812 817 823 829 834 836 844 848 851 855 860 863 866 868 871 873 875 877 878 880 881
717 706 701 702 706 710 715 719 725 730 735 744 751 756 764 771 778 784 791 796 800 804 808 813 817 823 829 835 840 844 847 851 854 857 859 861 864 866 868 870 872 874 876